Location: Limoges
(45.8354°N, 1.2645°E)
Time: 17:11:52
(UTC+01:00)

ISS - Pass Details

Date: 11 November 2025
Orbit: 416 x 420 km, 51.6° (Epoch: 12 December)

Event Time Altitude Azimuth Distance (km) Brightness Sun altitude
Rises 19:36:46 0° 211° (SSW) 2,356 0.5 -22.5°
Reaches altitude 10° 19:39:03 10° 198° (SSW) 1,494 -0.7 -22.9°
Enters shadow 19:39:40 14° 192° (SSW) 1,289 -1.2 -23.0°
